星链-2273 (STARLINK-2273 )

导读 | 豆包AI

STARLINK-2273是美国SpaceX公司星链星座的组网卫星,于2021年3月24日发射入轨,属于星链互联网卫星集群的组成部分。星链计划旨在近地轨道部署数千颗卫星,为全球偏远缺网地区提供高速低延迟宽带服务,这颗卫星承担着星座组网运营任务,是星链全球互联网覆盖建设的重要单元。

基本信息
目录编号:
47993
目录名称:
STARLINK-2273
国际标识:
2021-024S
轨道中心:
EARTH
卫星名称:
星链-2273
卫星全名:
星链-2273 (STARLINK-2273 )
卫星状态:
在轨 (已飞行1816 天)
发射日期:
2021-03-24 UTC
国别 :
美国 (US)
星等 :
--
轨道信息
数据来源 国际轨道数据
星历时间: 2026-03-14T08:00:02+0800
14小时前
查看轨道信息
半长轴: 6868.318km
偏心率: 0.0000554
轨道倾角: 53.136°
近地点辐角 100.143°
升交点赤经 276.262°
平近点角 237.448°
近地点: 489.8km
远地点: 490.562km
周期: 94.414分钟
每日圈数: 15.252015
详细信息
固有亮度:
5
最大亮度:
2.5
卫星平台:
Starlink V1.0
覆盖范围:
全球
运营商:
太空探索技术公司
运营商所在国:
美国
制造商(研发单位):
太空探索技术公司
制造商所在国:
美国
使用方式:
暂无
卫星简介
星链(Starlink)计划是由太空探索技术公司(SpaceX)提出的一个巨型低轨卫星互联网星座项目,计划在2019年至2024年间在太空搭建由约1.2万颗卫星组成的“星链”网络,其中1584颗将部署在地球上空550千米处的近地轨道,并从2020年开始工作。该卫星仍在工作。
2D轨道图
3D轨道图
轨道高度分析图
轨道倾角分析图
轨道综合分析图
查看轨道综合分析图